ROMMA est une association bénévole à but non lucratif. Votre soutien est indispensable : ADHERER à ROMMA ou FAIRE un DON

Voiron - (38, Isère)

Voironnais (300 m)   Longitude: 05° 35' E   Latitude: 45° 23' N Station partenaire n°109
 

Détail journalier du     <<     >>

Température Precipitation Humidité Pression Vent Dir Rafale Dir. rafale Ensol.
Heure (°C) (mm) (%) (hPa) (km/h) (km/h) (min)
01:00 5.506310322SE8S0
02:00 4.706710312SSE8SSE0
03:00 4.207110311SSE6SSE0
04:00 3.907010312NO5NO0
05:00 3.407210312N8NNO0
06:00 3.607110311N5ESE0
07:00 2.907410322NNE5NNE0
08:00 5.106810321NNE5N30
09:00 7.006210322S13SSE60
10:00 8.105910326SSO19S60
11:00 9.605610328SSO19S60
12:00 11.105210315S13SSE60
13:00 12.804810314SE15SSE60
14:00 14.404510304E15SE60
15:00 15.904210294N16NNO60
16:00 15.604310309NNO26ONO60
17:00 15.7043103011NNO26NO60
18:00 15.2044103011N23NNE60
19:00 13.604810309N19N0
20:00 11.805510315NNO15N0
21:00 10.306010312NNO8NNO0
22:00 9.1065103103NNO0
23:00 8.406710312NE5NNO0
minuit 7.307110311NE5NE0

Graphique du 21-03-2019

 

Serveur OMMA